This is the latest recevied weather packets stored in our database for station/object F5ZQC-13. If no packets are shown the sender has not sent any weather packets the latest 10 day(s).
| Time | Temp. | Humidity | Pressure | Rain* | Wind** | Luminosity | Snow |
|---|---|---|---|---|---|---|---|
| 1777646902 | 22.22° C | 41% | 1017.8 hPa | 0 mm | - | - | - |
| 1777646781 | 22.22° C | 41% | 1017.7 hPa | 0 mm | - | - | - |
| 1777646596 | 22.22° C | 42% | 1017.7 hPa | 0 mm | - | - | - |
| 1777646318 | 22.22° C | 45% | 1017.8 hPa | 0 mm | - | - | - |
| 1777646133 | 22.22° C | 45% | 1017.8 hPa | 0 mm | - | - | - |
| 1777646018 | 22.22° C | 45% | 1017.9 hPa | 0 mm | - | - | - |
| 1777645896 | 22.22° C | 46% | 1017.7 hPa | 0 mm | - | - | - |
| 1777645717 | 21.67° C | 47% | 1017.8 hPa | 0 mm | - | - | - |
| 1777645516 | 21.67° C | 47% | 1017.7 hPa | 0 mm | - | - | - |
| 1777645394 | 21.67° C | 48% | 1017.8 hPa | 0 mm | - | - | - |
| 1777645272 | 21.67° C | 48% | 1017.7 hPa | 0 mm | - | - | - |
| 1777645122 | 21.11° C | 50% | 1017.8 hPa | 0 mm | - | - | - |
| 1777644878 | 21.11° C | 50% | 1017.7 hPa | 0 mm | - | - | - |
| 1777644859 | 21.11° C | 49% | 1017.8 hPa | 0 mm | - | - | - |
| 1777644434 | 21.11° C | 48% | 1017.8 hPa | 0 mm | - | - | - |
| 1777644356 | 21.11° C | 48% | 1017.8 hPa | 0 mm | - | - | - |
| 1777644233 | 21.11° C | 50% | 1017.7 hPa | 0 mm | - | - | - |
| 1777643989 | 21.11° C | 47% | 1018 hPa | 0 mm | - | - | - |
| 1777643970 | 21.11° C | 47% | 1018 hPa | 0.25 mm | - | - | - |
| 1777643649 | 21.67° C | 46% | 1018.1 hPa | 0.25 mm | - | - | - |
| 1777643604 | 21.67° C | 46% | 1018.1 hPa | 0.25 mm | - | - | - |
| 1777643542 | 21.67° C | 47% | 1018.1 hPa | 0.25 mm | - | - | - |
| 1777643445 | 21.67° C | 46% | 1018 hPa | 0.25 mm | - | - | - |
| 1777643323 | 21.67° C | 46% | 1018.1 hPa | 0.25 mm | - | - | - |
| 1777643138 | 21.67° C | 45% | 1018.1 hPa | 0 mm | - | - | - |
* Rain since midnight (hover to see other rain measurements)
** Current wind speed in m/s (hover to see current wind gust speed)